Time,TemperatureF,DewpointF,PressureIn,WindDirection,WindDirectionDegrees,WindSpeedMPH,WindSpeedGustMPH,Humidity,HourlyPrecipIn,Conditions,Clouds,dailyrainin,SoftwareType,DateUTC
2013-02-19 00:00:00,9.2,2.3,29.81,WNW,302,8.0,13.0,73,0.00,,SKC,0.00,VWS V14.01,2013-02-19 06:00:00,
2013-02-19 00:05:00,9.1,2.2,29.81,WNW,284,7.0,19.0,73,0.00,,SKC,0.00,VWS V14.01,2013-02-19 06:05:00,
2013-02-19 00:10:00,9.0,2.1,29.82,WNW,297,11.0,19.0,73,0.00,,SKC,0.00,VWS V14.01,2013-02-19 06:10:00,
2013-02-19 00:15:00,8.9,2.0,29.82,NNW,344,8.0,22.0,73,0.00,,SKC,0.00,VWS V14.01,2013-02-19 06:15:00,
2013-02-19 00:20:00,8.7,2.1,29.82,NW,305,8.0,22.0,74,0.00,,SKC,0.00,VWS V14.01,2013-02-19 06:20:00,
2013-02-19 00:25:00,8.5,1.6,29.82,NNW,332,9.0,22.0,73,0.00,,SKC,0.00,VWS V14.01,2013-02-19 06:25:00,
2013-02-19 00:30:00,8.5,1.6,29.82,NNW,328,7.0,12.0,73,0.00,,SKC,0.00,VWS V14.01,2013-02-19 06:30:00,
2013-02-19 00:35:00,8.4,1.2,29.82,WNW,290,9.0,19.0,72,0.00,,SKC,0.00,VWS V14.01,2013-02-19 06:35:00,
2013-02-19 00:40:00,8.3,1.1,29.83,NW,304,6.0,19.0,72,0.00,,SKC,0.00,VWS V14.01,2013-02-19 06:40:00,
2013-02-19 00:45:00,8.2,1.0,29.83,WNW,300,8.0,19.0,72,0.00,,SKC,0.00,VWS V14.01,2013-02-19 06:45:00,
2013-02-19 00:50:00,8.1,1.0,29.84,NW,313,14.0,19.0,72,0.00,,SKC,0.00,VWS V14.01,2013-02-19 06:50:00,
2013-02-19 00:55:00,7.9,0.8,29.84,NW,320,5.0,19.0,72,0.00,,SKC,0.00,VWS V14.01,2013-02-19 06:55:00,
2013-02-19 01:00:00,7.8,0.7,29.85,WNW,286,8.0,13.0,72,0.00,,SKC,0.00,VWS V14.01,2013-02-19 07:00:00,
2013-02-19 01:05:00,7.7,0.6,29.85,WNW,300,8.0,14.0,72,0.00,,SKC,0.00,VWS V14.01,2013-02-19 07:05:00,
2013-02-19 01:10:00,7.6,0.5,29.85,WNW,303,2.0,14.0,72,0.00,,SKC,0.00,VWS V14.01,2013-02-19 07:10:00,
2013-02-19 01:15:00,7.5,0.4,29.85,NW,322,6.0,16.0,72,0.00,,SKC,0.00,VWS V14.01,2013-02-19 07:15:00,
2013-02-19 01:20:00,7.4,0.3,29.85,NW,313,6.0,16.0,72,0.00,,SKC,0.00,VWS V14.01,2013-02-19 07:20:00,
2013-02-19 01:25:00,7.3,0.2,29.85,NW,313,5.0,17.0,72,0.00,,SKC,0.00,VWS V14.01,2013-02-19 07:25:00,
2013-02-19 01:30:00,7.2,0.1,29.86,West,268,6.0,12.0,72,0.00,,SKC,0.00,VWS V14.01,2013-02-19 07:30:00,
2013-02-19 01:35:00,7.1,0.0,29.85,NNW,344,8.0,13.0,72,0.00,,SKC,0.00,VWS V14.01,2013-02-19 07:35:00,
2013-02-19 01:40:00,7.0,-0.1,29.86,WNW,284,2.0,16.0,72,0.00,,SKC,0.00,VWS V14.01,2013-02-19 07:40:00,
2013-02-19 01:50:00,7.0,-0.1,29.86,WNW,292,8.0,17.0,72,0.00,,SKC,0.00,VWS V14.01,2013-02-19 07:50:00,
2013-02-19 01:55:00,6.8,-0.3,29.87,NW,309,7.0,17.0,72,0.00,,SKC,0.00,VWS V14.01,2013-02-19 07:55:00,
2013-02-19 02:00:00,6.8,0.0,29.87,WNW,298,5.0,5.0,73,0.00,,SKC,0.00,VWS V14.01,2013-02-19 08:00:00,
2013-02-19 02:05:00,6.7,0.2,29.87,NW,309,5.0,12.0,74,0.00,,SKC,0.00,VWS V14.01,2013-02-19 08:05:00,
2013-02-19 02:10:00,6.6,0.1,29.87,NW,313,7.0,12.0,74,0.00,,SKC,0.00,VWS V14.01,2013-02-19 08:10:00,
2013-02-19 02:15:00,6.5,0.3,29.87,NW,313,4.0,12.0,75,0.00,,SKC,0.00,VWS V14.01,2013-02-19 08:15:00,
2013-02-19 02:20:00,6.3,0.4,29.87,WNW,303,4.0,12.0,76,0.00,,SKC,0.00,VWS V14.01,2013-02-19 08:20:00,
2013-02-19 02:25:00,6.2,0.3,29.87,NW,308,5.0,12.0,76,0.00,,SKC,0.00,VWS V14.01,2013-02-19 08:25:00,
2013-02-19 02:30:00,6.1,0.2,29.88,WNW,286,7.0,12.0,76,0.00,,SKC,0.00,VWS V14.01,2013-02-19 08:30:00,
2013-02-19 02:35:00,6.1,0.4,29.88,WNW,301,4.0,12.0,77,0.00,,SKC,0.00,VWS V14.01,2013-02-19 08:35:00,
2013-02-19 02:40:00,6.0,0.3,29.88,WNW,296,4.0,16.0,77,0.00,,SKC,0.00,VWS V14.01,2013-02-19 08:40:00,
2013-02-19 02:45:00,5.9,0.3,29.88,WNW,302,8.0,16.0,77,0.00,,SKC,0.00,VWS V14.01,2013-02-19 08:45:00,
2013-02-19 02:50:00,5.8,0.2,29.89,NNW,338,8.0,16.0,77,0.00,,SKC,0.00,VWS V14.01,2013-02-19 08:50:00,
2013-02-19 02:55:00,5.8,-0.1,29.89,WNW,301,4.0,16.0,76,0.00,,SKC,0.00,VWS V14.01,2013-02-19 08:55:00,
2013-02-19 03:00:00,5.8,-0.4,29.89,NW,319,5.0,9.0,75,0.00,,SKC,0.00,VWS V14.01,2013-02-19 09:00:00,
2013-02-19 03:05:00,5.7,-0.8,29.89,NNW,343,7.0,12.0,74,0.00,,SKC,0.00,VWS V14.01,2013-02-19 09:05:00,
2013-02-19 03:10:00,5.7,-0.8,29.90,NNW,346,7.0,19.0,74,0.00,,SKC,0.00,VWS V14.01,2013-02-19 09:10:00,
2013-02-19 03:15:00,5.6,-0.9,29.90,NW,307,6.0,19.0,74,0.00,,SKC,0.00,VWS V14.01,2013-02-19 09:15:00,
2013-02-19 03:20:00,5.5,-1.0,29.90,NW,313,4.0,19.0,74,0.00,,SKC,0.00,VWS V14.01,2013-02-19 09:20:00,
2013-02-19 03:25:00,5.5,-0.7,29.90,WNW,296,7.0,19.0,75,0.00,,SKC,0.00,VWS V14.01,2013-02-19 09:25:00,
2013-02-19 03:30:00,5.4,-1.1,29.90,WNW,291,4.0,5.0,74,0.00,,SKC,0.00,VWS V14.01,2013-02-19 09:30:00,
2013-02-19 03:35:00,5.4,-1.1,29.90,NW,306,8.0,12.0,74,0.00,,SKC,0.00,VWS V14.01,2013-02-19 09:35:00,
2013-02-19 03:40:00,5.4,-1.4,29.91,NW,312,5.0,17.0,73,0.00,,SKC,0.00,VWS V14.01,2013-02-19 09:40:00,
2013-02-19 03:45:00,5.4,-1.1,29.91,WNW,303,1.0,17.0,74,0.00,,SKC,0.00,VWS V14.01,2013-02-19 09:45:00,
2013-02-19 03:50:00,5.4,-1.1,29.90,NW,318,5.0,17.0,74,0.00,,SKC,0.00,VWS V14.01,2013-02-19 09:50:00,
2013-02-19 03:55:00,5.4,-1.1,29.91,NW,322,2.0,17.0,74,0.00,,SKC,0.00,VWS V14.01,2013-02-19 09:55:00,
2013-02-19 04:00:00,5.4,-0.8,29.91,NW,315,2.0,2.0,75,0.00,,SKC,0.00,VWS V14.01,2013-02-19 10:00:00,
2013-02-19 04:05:00,5.3,-0.9,29.92,NW,321,5.0,9.0,75,0.00,,SKC,0.00,VWS V14.01,2013-02-19 10:05:00,
2013-02-19 04:10:00,5.3,-0.9,29.91,WNW,284,8.0,13.0,75,0.00,,SKC,0.00,VWS V14.01,2013-02-19 10:10:00,
2013-02-19 04:15:00,5.3,-1.2,29.92,NW,319,11.0,14.0,74,0.00,,SKC,0.00,VWS V14.01,2013-02-19 10:15:00,
2013-02-19 04:20:00,5.2,-1.5,29.92,NW,323,1.0,14.0,73,0.00,,SKC,0.00,VWS V14.01,2013-02-19 10:20:00,
2013-02-19 04:25:00,5.1,-1.6,29.92,NW,315,2.0,14.0,73,0.00,,SKC,0.00,VWS V14.01,2013-02-19 10:25:00,
2013-02-19 04:30:00,4.9,-2.1,29.92,NW,312,4.0,9.0,72,0.00,,SKC,0.00,VWS V14.01,2013-02-19 10:30:00,
2013-02-19 04:35:00,4.7,-2.3,29.92,NW,309,8.0,15.0,72,0.00,,SKC,0.00,VWS V14.01,2013-02-19 10:35:00,
2013-02-19 04:40:00,4.6,-2.4,29.92,NNW,342,6.0,15.0,72,0.00,,SKC,0.00,VWS V14.01,2013-02-19 10:40:00,
2013-02-19 04:45:00,4.5,-2.5,29.93,NW,309,6.0,15.0,72,0.00,,SKC,0.00,VWS V14.01,2013-02-19 10:45:00,
2013-02-19 04:50:00,4.5,-2.2,29.93,North,360,5.0,15.0,73,0.00,,SKC,0.00,VWS V14.01,2013-02-19 10:50:00,
2013-02-19 04:55:00,4.4,-2.3,29.93,NW,309,7.0,15.0,73,0.00,,SKC,0.00,VWS V14.01,2013-02-19 10:55:00,
2013-02-19 05:00:00,4.2,-2.8,29.93,WNW,297,4.0,7.0,72,0.00,,SKC,0.00,VWS V14.01,2013-02-19 11:00:00,
2013-02-19 05:05:00,4.1,-2.6,29.94,WNW,298,2.0,10.0,73,0.00,,SKC,0.00,VWS V14.01,2013-02-19 11:05:00,
2013-02-19 05:10:00,4.0,-3.0,29.94,NW,321,7.0,12.0,72,0.00,,SKC,0.00,VWS V14.01,2013-02-19 11:10:00,
2013-02-19 05:15:00,3.9,-3.1,29.94,WNW,298,5.0,12.0,72,0.00,,SKC,0.00,VWS V14.01,2013-02-19 11:15:00,
2013-02-19 05:20:00,3.8,-3.2,29.94,NW,311,11.0,12.0,72,0.00,,SKC,0.00,VWS V14.01,2013-02-19 11:20:00,
2013-02-19 05:25:00,3.6,-3.7,29.95,NW,304,4.0,12.0,71,0.00,,SKC,0.00,VWS V14.01,2013-02-19 11:25:00,
2013-02-19 05:30:00,3.5,-3.8,29.95,NW,315,4.0,9.0,71,0.00,,SKC,0.00,VWS V14.01,2013-02-19 11:30:00,
2013-02-19 05:35:00,3.3,-3.7,29.95,WNW,295,4.0,9.0,72,0.00,,SKC,0.00,VWS V14.01,2013-02-19 11:35:00,
2013-02-19 05:40:00,3.2,-3.8,29.95,NW,325,6.0,9.0,72,0.00,,SKC,0.00,VWS V14.01,2013-02-19 11:40:00,
2013-02-19 05:45:00,3.0,-4.0,29.96,NW,313,1.0,10.0,72,0.00,,SKC,0.00,VWS V14.01,2013-02-19 11:45:00,
2013-02-19 05:50:00,2.8,-4.2,29.96,WNW,289,2.0,10.0,72,0.00,,SKC,0.00,VWS V14.01,2013-02-19 11:50:00,
2013-02-19 05:55:00,2.7,-4.3,29.96,WNW,286,6.0,10.0,72,0.00,,SKC,0.00,VWS V14.01,2013-02-19 11:55:00,
2013-02-19 06:00:00,2.6,-4.1,29.96,NW,305,4.0,5.0,73,0.00,,SKC,0.00,VWS V14.01,2013-02-19 12:00:00,
2013-02-19 06:05:00,2.6,-4.1,29.97,NW,315,7.0,12.0,73,0.00,,SKC,0.00,VWS V14.01,2013-02-19 12:05:00,
2013-02-19 06:10:00,2.5,-4.2,29.97,WNW,290,5.0,12.0,73,0.00,,SKC,0.00,VWS V14.01,2013-02-19 12:10:00,
2013-02-19 06:15:00,2.5,-4.2,29.97,NW,306,6.0,12.0,73,0.00,,SKC,0.00,VWS V14.01,2013-02-19 12:15:00,
2013-02-19 06:20:00,2.4,-4.3,29.98,NW,304,2.0,12.0,73,0.00,,SKC,0.00,VWS V14.01,2013-02-19 12:20:00,
2013-02-19 06:25:00,2.2,-4.4,29.98,WNW,301,5.0,12.0,73,0.00,,SKC,0.00,VWS V14.01,2013-02-19 12:25:00,
2013-02-19 06:30:00,2.1,-4.6,29.98,NNW,333,5.0,9.0,73,0.00,,SKC,0.00,VWS V14.01,2013-02-19 12:30:00,
2013-02-19 06:35:00,2.1,-4.6,29.98,NW,313,2.0,13.0,73,0.00,,SKC,0.00,VWS V14.01,2013-02-19 12:35:00,
2013-02-19 06:40:00,2.0,-4.7,29.99,WNW,302,4.0,13.0,73,0.00,,SKC,0.00,VWS V14.01,2013-02-19 12:40:00,
2013-02-19 06:45:00,1.9,-5.0,29.99,NW,304,1.0,13.0,72,0.00,,SKC,0.00,VWS V14.01,2013-02-19 12:45:00,
2013-02-19 06:50:00,1.8,-5.1,29.99,WNW,290,6.0,13.0,72,0.00,,SKC,0.00,VWS V14.01,2013-02-19 12:50:00,
2013-02-19 06:55:00,1.8,-5.1,29.99,NW,312,6.0,13.0,72,0.00,,SKC,0.00,VWS V14.01,2013-02-19 12:55:00,
2013-02-19 07:00:00,1.7,-5.2,30.00,WNW,299,1.0,4.0,72,0.00,,SKC,0.00,VWS V14.01,2013-02-19 13:00:00,
2013-02-19 07:05:00,1.7,-5.2,30.01,NW,306,6.0,11.0,72,0.00,,SKC,0.00,VWS V14.01,2013-02-19 13:05:00,
2013-02-19 07:10:00,1.5,-5.4,30.01,NW,310,2.0,11.0,72,0.00,,SKC,0.00,VWS V14.01,2013-02-19 13:10:00,
2013-02-19 07:15:00,1.4,-5.5,30.02,WNW,303,5.0,11.0,72,0.00,,SKC,0.00,VWS V14.01,2013-02-19 13:15:00,
2013-02-19 07:20:00,1.4,-6.0,30.02,NW,321,4.0,-999.0,72,-99.99,,,0.00,weatherlink.com 1.10,2013-02-19 13:20:00,
2013-02-19 07:25:00,1.3,-5.6,30.02,WNW,294,4.0,13.0,72,0.00,,SKC,0.00,VWS V14.01,2013-02-19 13:25:00,
2013-02-19 07:30:00,1.3,-5.6,30.02,NW,310,4.0,4.0,72,0.00,,SKC,0.00,VWS V14.01,2013-02-19 13:30:00,
2013-02-19 07:35:00,1.2,-5.7,30.03,WNW,299,7.0,12.0,72,0.00,,SKC,0.00,VWS V14.01,2013-02-19 13:35:00,
2013-02-19 07:40:00,1.2,-5.7,30.03,NW,319,5.0,13.0,72,0.00,,SKC,0.00,VWS V14.01,2013-02-19 13:40:00,
2013-02-19 07:45:00,1.2,-6.0,30.03,NNW,332,6.0,13.0,71,0.00,,SKC,0.00,VWS V14.01,2013-02-19 13:45:00,
2013-02-19 07:50:00,1.2,-6.0,30.04,NW,323,11.0,13.0,71,0.00,,SKC,0.00,VWS V14.01,2013-02-19 13:50:00,
2013-02-19 07:55:00,1.0,-6.2,30.04,NW,325,6.0,14.0,71,0.00,,SKC,0.00,VWS V14.01,2013-02-19 13:55:00,
2013-02-19 08:00:00,0.9,-6.3,30.05,NW,321,4.0,7.0,71,0.00,,SKC,0.00,VWS V14.01,2013-02-19 14:00:00,
2013-02-19 08:05:00,0.9,-6.3,30.05,WNW,298,7.0,9.0,71,0.00,,SKC,0.00,VWS V14.01,2013-02-19 14:05:00,
2013-02-19 08:10:00,1.0,-6.5,30.05,WNW,290,6.0,12.0,70,0.00,,SKC,0.00,VWS V14.01,2013-02-19 14:10:00,
2013-02-19 08:15:00,1.1,-6.7,30.05,WNW,301,6.0,12.0,69,0.00,,SKC,0.00,VWS V14.01,2013-02-19 14:15:00,
2013-02-19 08:20:00,1.1,-6.7,30.05,NW,306,9.0,14.0,69,0.00,,SKC,0.00,VWS V14.01,2013-02-19 14:20:00,
2013-02-19 08:25:00,1.2,-6.6,30.06,North,360,4.0,14.0,69,0.00,,SKC,0.00,VWS V14.01,2013-02-19 14:25:00,
2013-02-19 08:30:00,1.4,-6.4,30.06,NNW,332,4.0,8.0,69,0.00,,SKC,0.00,VWS V14.01,2013-02-19 14:30:00,
2013-02-19 08:35:00,1.2,-7.2,30.06,NW,316,6.0,22.0,67,0.00,,SKC,0.00,VWS V14.01,2013-02-19 14:35:00,
2013-02-19 08:40:00,1.0,-7.1,30.06,NW,325,6.0,22.0,68,0.00,,SKC,0.00,VWS V14.01,2013-02-19 14:40:00,
2013-02-19 08:45:00,1.0,-7.4,30.07,NW,323,9.0,22.0,67,0.00,,SKC,0.00,VWS V14.01,2013-02-19 14:45:00,
2013-02-19 08:50:00,1.0,-7.4,30.07,NW,310,12.0,22.0,67,0.00,,SKC,0.00,VWS V14.01,2013-02-19 14:50:00,
2013-02-19 08:55:00,1.0,-7.4,30.07,NW,322,8.0,22.0,67,0.00,,SKC,0.00,VWS V14.01,2013-02-19 14:55:00,
2013-02-19 09:00:00,1.1,-7.3,30.07,NW,318,7.0,7.0,67,0.00,,SKC,0.00,VWS V14.01,2013-02-19 15:00:00,
2013-02-19 09:05:00,1.2,-7.2,30.08,NW,323,9.0,12.0,67,0.00,,SKC,0.00,VWS V14.01,2013-02-19 15:05:00,
2013-02-19 09:10:00,1.3,-7.4,30.08,WNW,295,6.0,15.0,66,0.00,,SKC,0.00,VWS V14.01,2013-02-19 15:10:00,
2013-02-19 09:15:00,1.4,-7.3,30.08,NW,307,7.0,15.0,66,0.00,,SKC,0.00,VWS V14.01,2013-02-19 15:15:00,
2013-02-19 09:20:00,1.5,-7.2,30.09,WNW,298,4.0,19.0,66,0.00,,SKC,0.00,VWS V14.01,2013-02-19 15:20:00,
2013-02-19 09:25:00,1.7,-7.0,30.09,WNW,294,6.0,19.0,66,0.00,,SKC,0.00,VWS V14.01,2013-02-19 15:25:00,
2013-02-19 09:29:00,2.0,-6.7,30.09,West,278,4.0,7.0,66,0.00,,SKC,0.00,VWS V14.01,2013-02-19 15:29:00,
2013-02-19 09:34:00,2.2,-6.8,30.09,West,267,6.0,15.0,65,0.00,,SKC,0.00,VWS V14.01,2013-02-19 15:34:00,
2013-02-19 09:39:00,2.4,-6.7,30.09,NNW,333,6.0,15.0,65,0.00,,SKC,0.00,VWS V14.01,2013-02-19 15:39:00,
2013-02-19 09:44:00,2.8,-6.0,30.09,North,5,3.0,15.0,66,0.00,,SKC,0.00,VWS V14.01,2013-02-19 15:44:00,
2013-02-19 09:49:00,3.0,-6.1,30.09,NW,324,5.0,15.0,65,0.00,,SKC,0.00,VWS V14.01,2013-02-19 15:49:00,
2013-02-19 09:54:00,3.3,-5.8,30.10,NW,321,9.0,15.0,65,0.00,,SKC,0.00,VWS V14.01,2013-02-19 15:54:00,
2013-02-19 09:59:00,3.4,-6.0,30.10,NW,317,6.0,8.0,64,0.00,,SKC,0.00,VWS V14.01,2013-02-19 15:59:00,
2013-02-19 10:04:00,3.6,-5.5,30.09,WNW,292,6.0,14.0,65,0.00,,SKC,0.00,VWS V14.01,2013-02-19 16:04:00,
2013-02-19 10:09:00,4.1,-5.4,30.09,NW,306,8.0,14.0,64,0.00,,SKC,0.00,VWS V14.01,2013-02-19 16:09:00,
2013-02-19 10:14:00,4.5,-5.3,30.09,NNW,334,1.0,14.0,63,0.00,,SKC,0.00,VWS V14.01,2013-02-19 16:14:00,
2013-02-19 10:19:00,4.9,-4.9,30.09,NNW,332,4.0,14.0,63,0.00,,SKC,0.00,VWS V14.01,2013-02-19 16:19:00,
2013-02-19 10:24:00,5.3,-4.9,30.10,NW,304,8.0,14.0,62,0.00,,SKC,0.00,VWS V14.01,2013-02-19 16:24:00,
2013-02-19 10:29:00,5.3,-4.9,30.09,WNW,292,6.0,6.0,62,0.00,,SKC,0.00,VWS V14.01,2013-02-19 16:29:00,
2013-02-19 10:34:00,5.5,-4.7,30.10,NW,306,4.0,7.0,62,0.00,,SKC,0.00,VWS V14.01,2013-02-19 16:34:00,
2013-02-19 10:39:00,5.9,-4.3,30.10,NNW,341,9.0,12.0,62,0.00,,SKC,0.00,VWS V14.01,2013-02-19 16:39:00,
2013-02-19 10:44:00,5.9,-4.3,30.10,NW,311,4.0,12.0,62,0.00,,SKC,0.00,VWS V14.01,2013-02-19 16:44:00,
2013-02-19 10:49:00,6.2,-4.4,30.11,WNW,302,8.0,19.0,61,0.00,,SKC,0.00,VWS V14.01,2013-02-19 16:49:00,
2013-02-19 10:54:00,6.2,-4.4,30.10,North,11,4.0,19.0,61,0.00,,SKC,0.00,VWS V14.01,2013-02-19 16:54:00,
2013-02-19 10:59:00,6.3,-4.3,30.11,WNW,299,9.0,9.0,61,0.00,,SKC,0.00,VWS V14.01,2013-02-19 16:59:00,
2013-02-19 11:04:00,6.5,-4.1,30.11,NW,307,6.0,13.0,61,0.00,,SKC,0.00,VWS V14.01,2013-02-19 17:04:00,
2013-02-19 11:09:00,6.8,-3.8,30.12,West,273,7.0,13.0,61,0.00,,SKC,0.00,VWS V14.01,2013-02-19 17:09:00,
2013-02-19 11:14:00,6.9,-4.0,30.12,WNW,289,8.0,13.0,60,0.00,,SKC,0.00,VWS V14.01,2013-02-19 17:14:00,
2013-02-19 11:19:00,7.0,-3.9,30.12,WNW,296,5.0,13.0,60,0.00,,SKC,0.00,VWS V14.01,2013-02-19 17:19:00,
2013-02-19 11:24:00,7.3,-3.3,30.12,NW,326,9.0,13.0,61,0.00,,SKC,0.00,VWS V14.01,2013-02-19 17:24:00,
2013-02-19 11:29:00,7.6,-3.0,30.12,NNW,340,5.0,8.0,61,0.00,,SKC,0.00,VWS V14.01,2013-02-19 17:29:00,
2013-02-19 11:34:00,8.0,-2.7,30.13,NW,306,8.0,8.0,61,0.00,,SKC,0.00,VWS V14.01,2013-02-19 17:34:00,
2013-02-19 11:39:00,8.0,-3.0,30.13,WNW,299,2.0,12.0,60,0.00,,SKC,0.00,VWS V14.01,2013-02-19 17:39:00,
2013-02-19 11:44:00,7.9,-3.1,30.13,NW,309,7.0,12.0,60,0.00,,SKC,0.00,VWS V14.01,2013-02-19 17:44:00,
2013-02-19 11:49:00,8.1,-2.9,30.13,WNW,290,4.0,14.0,60,0.00,,SKC,0.00,VWS V14.01,2013-02-19 17:49:00,
2013-02-19 11:54:00,8.5,-2.5,30.13,West,265,4.0,14.0,60,0.00,,SKC,0.00,VWS V14.01,2013-02-19 17:54:00,
2013-02-19 11:59:00,8.3,-3.1,30.13,WNW,296,7.0,13.0,59,0.00,,SKC,0.00,VWS V14.01,2013-02-19 17:59:00,
2013-02-19 12:04:00,8.1,-3.2,30.13,WNW,291,14.0,14.0,59,0.00,,SKC,0.00,VWS V14.01,2013-02-19 18:04:00,
2013-02-19 12:09:00,8.2,-3.2,30.14,SW,231,5.0,14.0,59,0.00,,SKC,0.00,VWS V14.01,2013-02-19 18:09:00,
2013-02-19 12:14:00,8.4,-2.6,30.14,West,274,12.0,14.0,60,0.00,,SKC,0.00,VWS V14.01,2013-02-19 18:14:00,
2013-02-19 12:19:00,8.4,-3.0,30.14,West,271,13.0,14.0,59,0.00,,SKC,0.00,VWS V14.01,2013-02-19 18:19:00,
2013-02-19 12:24:00,8.5,-3.2,30.14,NW,312,7.0,14.0,58,0.00,,SKC,0.00,VWS V14.01,2013-02-19 18:24:00,
2013-02-19 12:29:00,8.8,-2.2,30.14,WNW,284,11.0,11.0,60,0.00,,SKC,0.00,VWS V14.01,2013-02-19 18:29:00,
2013-02-19 12:34:00,9.1,-2.0,30.14,WNW,296,2.0,11.0,60,0.00,,SKC,0.00,VWS V14.01,2013-02-19 18:34:00,
2013-02-19 12:39:00,9.4,-2.4,30.14,West,281,4.0,13.0,58,0.00,,SKC,0.00,VWS V14.01,2013-02-19 18:39:00,
2013-02-19 12:44:00,9.3,-2.5,30.14,NW,307,9.0,13.0,58,0.00,,SKC,0.00,VWS V14.01,2013-02-19 18:44:00,
2013-02-19 12:49:00,9.4,-2.0,30.14,NW,315,6.0,13.0,59,0.00,,SKC,0.00,VWS V14.01,2013-02-19 18:49:00,
2013-02-19 12:54:00,9.6,-1.8,30.14,WNW,285,4.0,14.0,59,0.00,,SKC,0.00,VWS V14.01,2013-02-19 18:54:00,
2013-02-19 12:59:00,9.7,-2.1,30.14,WNW,284,12.0,12.0,58,0.00,,SKC,0.00,VWS V14.01,2013-02-19 18:59:00,
2013-02-19 13:04:00,9.8,-2.4,30.14,NW,308,2.0,12.0,57,0.00,,SKC,0.00,VWS V14.01,2013-02-19 19:04:00,
2013-02-19 13:09:00,10.0,-2.2,30.14,WNW,292,9.0,13.0,57,0.00,,SKC,0.00,VWS V14.01,2013-02-19 19:09:00,
2013-02-19 13:14:00,10.3,-1.9,30.14,NW,313,6.0,17.0,57,0.00,,SKC,0.00,VWS V14.01,2013-02-19 19:14:00,
2013-02-19 13:19:00,10.6,-1.6,30.14,WNW,285,4.0,17.0,57,0.00,,SKC,0.00,VWS V14.01,2013-02-19 19:19:00,
2013-02-19 13:24:00,10.6,-1.6,30.14,NW,307,7.0,17.0,57,0.00,,SKC,0.00,VWS V14.01,2013-02-19 19:24:00,
2013-02-19 13:29:00,10.6,-1.2,30.14,WNW,299,7.0,7.0,58,0.00,,SKC,0.00,VWS V14.01,2013-02-19 19:29:00,
2013-02-19 13:34:00,10.5,-1.7,30.14,NW,304,8.0,9.0,57,0.00,,SKC,0.00,VWS V14.01,2013-02-19 19:34:00,
2013-02-19 13:39:00,10.8,-1.4,30.13,NW,319,9.0,12.0,57,0.00,,SKC,0.00,VWS V14.01,2013-02-19 19:39:00,
2013-02-19 13:44:00,11.0,-2.0,30.14,West,271,4.0,13.0,55,0.00,,SKC,0.00,VWS V14.01,2013-02-19 19:44:00,
2013-02-19 13:49:00,11.0,-1.2,30.14,WNW,303,2.0,13.0,57,0.00,,SKC,0.00,VWS V14.01,2013-02-19 19:49:00,
2013-02-19 13:54:00,11.2,-1.4,30.14,WNW,299,7.0,13.0,56,0.00,,SKC,0.00,VWS V14.01,2013-02-19 19:54:00,
2013-02-19 13:59:00,11.2,-1.8,30.14,WNW,301,9.0,11.0,55,0.00,,SKC,0.00,VWS V14.01,2013-02-19 19:59:00,
2013-02-19 14:04:00,11.3,-1.7,30.14,West,266,4.0,13.0,55,0.00,,SKC,0.00,VWS V14.01,2013-02-19 20:04:00,
2013-02-19 14:09:00,11.3,-2.1,30.14,WNW,289,6.0,13.0,54,0.00,,SKC,0.00,VWS V14.01,2013-02-19 20:09:00,
2013-02-19 14:14:00,11.4,-2.0,30.15,NNW,339,11.0,13.0,54,0.00,,SKC,0.00,VWS V14.01,2013-02-19 20:14:00,
2013-02-19 14:19:00,11.4,-2.0,30.15,West,280,6.0,13.0,54,0.00,,SKC,0.00,VWS V14.01,2013-02-19 20:19:00,
2013-02-19 14:24:00,11.6,-1.8,30.16,WNW,297,9.0,13.0,54,0.00,,SKC,0.00,VWS V14.01,2013-02-19 20:24:00,
2013-02-19 14:29:00,11.6,-2.2,30.16,WNW,301,7.0,7.0,53,0.00,,SKC,0.00,VWS V14.01,2013-02-19 20:29:00,
2013-02-19 14:34:00,11.6,-2.2,30.16,NW,325,2.0,12.0,53,0.00,,SKC,0.00,VWS V14.01,2013-02-19 20:34:00,
2013-02-19 14:39:00,11.4,-2.8,30.17,NW,311,1.0,12.0,52,0.00,,SKC,0.00,VWS V14.01,2013-02-19 20:39:00,
2013-02-19 14:44:00,11.4,-2.0,30.17,NW,307,8.0,12.0,54,0.00,,SKC,0.00,VWS V14.01,2013-02-19 20:44:00,
2013-02-19 14:49:00,11.1,-3.1,30.17,NW,316,6.0,14.0,52,0.00,,SKC,0.00,VWS V14.01,2013-02-19 20:49:00,
2013-02-19 14:54:00,10.6,-3.5,30.18,NW,320,4.0,15.0,52,0.00,,SKC,0.00,VWS V14.01,2013-02-19 20:54:00,
2013-02-19 14:59:00,10.5,-3.2,30.18,NW,319,6.0,6.0,53,0.00,,SKC,0.00,VWS V14.01,2013-02-19 20:59:00,
2013-02-19 15:04:00,10.7,-2.7,30.19,NW,323,1.0,6.0,54,0.00,,SKC,0.00,VWS V14.01,2013-02-19 21:04:00,
2013-02-19 15:09:00,10.8,-3.0,30.19,NW,322,4.0,10.0,53,0.00,,SKC,0.00,VWS V14.01,2013-02-19 21:09:00,
2013-02-19 15:14:00,10.6,-3.5,30.19,WNW,292,6.0,13.0,52,0.00,,SKC,0.00,VWS V14.01,2013-02-19 21:14:00,
2013-02-19 15:19:00,10.3,-3.4,30.20,WNW,303,9.0,14.0,53,0.00,,SKC,0.00,VWS V14.01,2013-02-19 21:19:00,
2013-02-19 15:24:00,9.9,-3.8,30.20,WNW,295,6.0,14.0,53,0.00,,SKC,0.00,VWS V14.01,2013-02-19 21:24:00,
2013-02-19 15:29:00,9.6,-3.7,30.20,NW,321,4.0,4.0,54,0.00,,SKC,0.00,VWS V14.01,2013-02-19 21:29:00,
2013-02-19 15:34:00,9.6,-3.3,30.20,WNW,294,4.0,11.0,55,0.00,,SKC,0.00,VWS V14.01,2013-02-19 21:34:00,
2013-02-19 15:39:00,9.6,-3.7,30.21,NW,313,2.0,13.0,54,0.00,,SKC,0.00,VWS V14.01,2013-02-19 21:39:00,
2013-02-19 15:44:00,9.8,-3.5,30.21,WNW,296,2.0,13.0,54,0.00,,SKC,0.00,VWS V14.01,2013-02-19 21:44:00,
2013-02-19 15:49:00,10.0,-3.3,30.21,NW,323,7.0,13.0,54,0.00,,SKC,0.00,VWS V14.01,2013-02-19 21:49:00,
2013-02-19 15:54:00,10.1,-3.2,30.22,West,277,5.0,15.0,54,0.00,,SKC,0.00,VWS V14.01,2013-02-19 21:54:00,
2013-02-19 15:59:00,9.7,-3.6,30.22,NW,311,5.0,6.0,54,0.00,,SKC,0.00,VWS V14.01,2013-02-19 21:59:00,
2013-02-19 16:04:00,9.4,-3.9,30.23,NW,320,6.0,15.0,54,0.00,,SKC,0.00,VWS V14.01,2013-02-19 22:04:00,
2013-02-19 16:09:00,9.1,-4.2,30.23,NW,313,7.0,15.0,54,0.00,,SKC,0.00,VWS V14.01,2013-02-19 22:09:00,
2013-02-19 16:14:00,8.9,-4.0,30.23,NW,308,7.0,15.0,55,0.00,,SKC,0.00,VWS V14.01,2013-02-19 22:14:00,
2013-02-19 16:19:00,8.6,-4.6,30.23,NNW,327,5.0,17.0,54,0.00,,SKC,0.00,VWS V14.01,2013-02-19 22:19:00,
2013-02-19 16:24:00,8.4,-4.4,30.24,NW,306,2.0,17.0,55,0.00,,SKC,0.00,VWS V14.01,2013-02-19 22:24:00,
2013-02-19 16:29:00,8.4,-4.4,30.24,WNW,302,7.0,8.0,55,0.00,,SKC,0.00,VWS V14.01,2013-02-19 22:29:00,
2013-02-19 16:34:00,8.2,-4.6,30.24,NNW,336,7.0,12.0,55,0.00,,SKC,0.00,VWS V14.01,2013-02-19 22:34:00,
2013-02-19 16:39:00,8.2,-4.2,30.24,WNW,288,2.0,12.0,56,0.00,,SKC,0.00,VWS V14.01,2013-02-19 22:39:00,
2013-02-19 16:44:00,8.2,-4.2,30.25,WNW,286,5.0,15.0,56,0.00,,SKC,0.00,VWS V14.01,2013-02-19 22:44:00,
2013-02-19 16:49:00,8.0,-4.4,30.25,WNW,291,5.0,15.0,56,0.00,,SKC,0.00,VWS V14.01,2013-02-19 22:49:00,
2013-02-19 16:54:00,7.7,-4.7,30.25,NNW,327,7.0,16.0,56,0.00,,SKC,0.00,VWS V14.01,2013-02-19 22:54:00,
2013-02-19 16:59:00,7.4,-5.0,30.25,NW,305,8.0,8.0,56,0.00,,SKC,0.00,VWS V14.01,2013-02-19 22:59:00,
2013-02-19 17:04:00,7.2,-4.8,30.26,WNW,282,7.0,11.0,57,0.00,,SKC,0.00,VWS V14.01,2013-02-19 23:04:00,
2013-02-19 17:09:00,6.9,-5.1,30.26,NW,314,1.0,12.0,57,0.00,,SKC,0.00,VWS V14.01,2013-02-19 23:09:00,
2013-02-19 17:14:00,6.8,-5.2,30.26,NW,313,4.0,12.0,57,0.00,,SKC,0.00,VWS V14.01,2013-02-19 23:14:00,
2013-02-19 17:19:00,6.6,-5.4,30.26,WNW,302,5.0,12.0,57,0.00,,SKC,0.00,VWS V14.01,2013-02-19 23:19:00,
2013-02-19 17:24:00,6.5,-5.5,30.27,NW,311,2.0,13.0,57,0.00,,SKC,0.00,VWS V14.01,2013-02-19 23:24:00,
2013-02-19 17:29:00,6.4,-5.2,30.27,NNW,338,2.0,2.0,58,0.00,,SKC,0.00,VWS V14.01,2013-02-19 23:29:00,
2013-02-19 17:34:00,6.3,-5.3,30.27,NNW,327,8.0,14.0,58,0.00,,SKC,0.00,VWS V14.01,2013-02-19 23:34:00,
2013-02-19 17:39:00,6.2,-5.4,30.27,NNW,332,5.0,14.0,58,0.00,,SKC,0.00,VWS V14.01,2013-02-19 23:39:00,
2013-02-19 17:44:00,6.0,-5.6,30.28,WNW,301,7.0,14.0,58,0.00,,SKC,0.00,VWS V14.01,2013-02-19 23:44:00,
2013-02-19 17:49:00,5.8,-5.8,30.28,NW,318,4.0,14.0,58,0.00,,SKC,0.00,VWS V14.01,2013-02-19 23:49:00,
2013-02-19 17:54:00,5.7,-5.9,30.28,WNW,292,2.0,14.0,58,0.00,,SKC,0.00,VWS V14.01,2013-02-19 23:54:00,
2013-02-19 17:59:00,5.6,-5.6,30.28,WNW,294,4.0,14.0,59,0.00,,SKC,0.00,VWS V14.01,2013-02-19 23:59:00,
2013-02-19 18:04:00,5.4,-5.8,30.28,NW,309,8.0,8.0,59,0.00,,SKC,0.00,VWS V14.01,2013-02-20 00:04:00,
2013-02-19 18:09:00,5.3,-5.9,30.29,WNW,296,4.0,8.0,59,0.00,,SKC,0.00,VWS V14.01,2013-02-20 00:09:00,
2013-02-19 18:14:00,5.2,-6.0,30.29,NW,319,4.0,12.0,59,0.00,,SKC,0.00,VWS V14.01,2013-02-20 00:14:00,
2013-02-19 18:19:00,5.1,-5.7,30.29,NW,323,4.0,12.0,60,0.00,,SKC,0.00,VWS V14.01,2013-02-20 00:19:00,
2013-02-19 18:24:00,5.1,-5.7,30.30,WNW,292,6.0,12.0,60,0.00,,SKC,0.00,VWS V14.01,2013-02-20 00:24:00,
2013-02-19 18:29:00,5.0,-5.8,30.30,NW,307,2.0,5.0,60,0.00,,SKC,0.00,VWS V14.01,2013-02-20 00:29:00,
2013-02-19 18:34:00,4.9,-5.9,30.30,WNW,303,2.0,9.0,60,0.00,,SKC,0.00,VWS V14.01,2013-02-20 00:34:00,
2013-02-19 18:39:00,4.8,-6.0,30.30,WNW,302,7.0,9.0,60,0.00,,SKC,0.00,VWS V14.01,2013-02-20 00:39:00,
2013-02-19 18:44:00,4.8,-6.0,30.30,NW,309,0.0,9.0,60,0.00,,SKC,0.00,VWS V14.01,2013-02-20 00:44:00,
2013-02-19 18:49:00,4.7,-6.1,30.30,NNW,328,4.0,9.0,60,0.00,,SKC,0.00,VWS V14.01,2013-02-20 00:49:00,
2013-02-19 18:54:00,4.8,-6.0,30.30,NW,313,0.0,11.0,60,0.00,,SKC,0.00,VWS V14.01,2013-02-20 00:54:00,
2013-02-19 18:59:00,4.7,-6.1,30.31,NW,305,2.0,11.0,60,0.00,,SKC,0.00,VWS V14.01,2013-02-20 00:59:00,
2013-02-19 19:04:00,4.6,-6.2,30.31,WNW,302,5.0,8.0,60,0.00,,SKC,0.00,VWS V14.01,2013-02-20 01:04:00,
2013-02-19 19:09:00,4.5,-6.3,30.32,NNW,327,2.0,8.0,60,0.00,,SKC,0.00,VWS V14.01,2013-02-20 01:09:00,
2013-02-19 19:14:00,4.4,-6.1,30.32,NW,307,0.0,8.0,61,0.00,,SKC,0.00,VWS V14.01,2013-02-20 01:14:00,
2013-02-19 19:19:00,4.3,-6.2,30.32,WNW,289,2.0,8.0,61,0.00,,SKC,0.00,VWS V14.01,2013-02-20 01:19:00,
2013-02-19 19:24:00,4.2,-6.2,30.32,WNW,302,2.0,8.0,61,0.00,,SKC,0.00,VWS V14.01,2013-02-20 01:24:00,
2013-02-19 19:29:00,4.1,-6.3,30.32,NW,304,6.0,6.0,61,0.00,,SKC,0.00,VWS V14.01,2013-02-20 01:29:00,
2013-02-19 19:34:00,3.9,-6.2,30.33,NW,309,2.0,6.0,62,0.00,,SKC,0.00,VWS V14.01,2013-02-20 01:34:00,
2013-02-19 19:39:00,3.7,-6.4,30.32,West,278,6.0,6.0,62,0.00,,SKC,0.00,VWS V14.01,2013-02-20 01:39:00,
2013-02-19 19:44:00,3.7,-6.4,30.32,WNW,296,1.0,6.0,62,0.00,,SKC,0.00,VWS V14.01,2013-02-20 01:44:00,
2013-02-19 19:49:00,3.6,-6.2,30.33,WNW,293,1.0,6.0,63,0.00,,SKC,0.00,VWS V14.01,2013-02-20 01:49:00,
2013-02-19 19:54:00,3.5,-6.3,30.33,WNW,302,0.0,8.0,63,0.00,,SKC,0.00,VWS V14.01,2013-02-20 01:54:00,
2013-02-19 19:59:00,3.5,-6.3,30.33,WNW,303,4.0,8.0,63,0.00,,SKC,0.00,VWS V14.01,2013-02-20 01:59:00,
2013-02-19 20:04:00,3.5,-6.3,30.33,NW,323,4.0,6.0,63,0.00,,SKC,0.00,VWS V14.01,2013-02-20 02:04:00,
2013-02-19 20:09:00,3.5,-5.9,30.34,NW,309,1.0,6.0,64,0.00,,SKC,0.00,VWS V14.01,2013-02-20 02:09:00,
2013-02-19 20:14:00,3.5,-5.9,30.34,NW,304,2.0,6.0,64,0.00,,SKC,0.00,VWS V14.01,2013-02-20 02:14:00,
2013-02-19 20:19:00,3.4,-6.0,30.34,WNW,301,2.0,6.0,64,0.00,,SKC,0.00,VWS V14.01,2013-02-20 02:19:00,
2013-02-19 20:24:00,3.4,-6.0,30.34,WNW,298,1.0,6.0,64,0.00,,SKC,0.00,VWS V14.01,2013-02-20 02:24:00,
2013-02-19 20:29:00,3.3,-6.1,30.34,WNW,293,2.0,2.0,64,0.00,,SKC,0.00,VWS V14.01,2013-02-20 02:29:00,
2013-02-19 20:34:00,3.3,-5.8,30.35,West,275,1.0,8.0,65,0.00,,SKC,0.00,VWS V14.01,2013-02-20 02:34:00,
2013-02-19 20:39:00,3.3,-5.8,30.35,NW,317,2.0,9.0,65,0.00,,SKC,0.00,VWS V14.01,2013-02-20 02:39:00,
2013-02-19 20:44:00,3.3,-5.8,30.35,WNW,296,2.0,9.0,65,0.00,,SKC,0.00,VWS V14.01,2013-02-20 02:44:00,
2013-02-19 20:49:00,3.3,-5.8,30.35,NW,311,6.0,9.0,65,0.00,,SKC,0.00,VWS V14.01,2013-02-20 02:49:00,
2013-02-19 20:54:00,3.3,-5.8,30.35,NW,315,1.0,9.0,65,0.00,,SKC,0.00,VWS V14.01,2013-02-20 02:54:00,
2013-02-19 20:59:00,3.3,-5.8,30.35,NW,317,1.0,9.0,65,0.00,,SKC,0.00,VWS V14.01,2013-02-20 02:59:00,
2013-02-19 21:04:00,3.3,-5.5,30.36,NW,315,1.0,11.0,66,0.00,,SKC,0.00,VWS V14.01,2013-02-20 03:04:00,
2013-02-19 21:09:00,3.3,-5.5,30.36,NW,307,2.0,11.0,66,0.00,,SKC,0.00,VWS V14.01,2013-02-20 03:09:00,
2013-02-19 21:14:00,3.4,-5.4,30.36,WNW,300,2.0,11.0,66,0.00,,SKC,0.00,VWS V14.01,2013-02-20 03:14:00,
2013-02-19 21:19:00,3.4,-5.4,30.36,NW,317,1.0,11.0,66,0.00,,SKC,0.00,VWS V14.01,2013-02-20 03:19:00,
2013-02-19 21:24:00,3.3,-5.5,30.36,WNW,303,1.0,11.0,66,0.00,,SKC,0.00,VWS V14.01,2013-02-20 03:24:00,
2013-02-19 21:29:00,3.2,-5.6,30.36,NW,317,6.0,9.0,66,0.00,,SKC,0.00,VWS V14.01,2013-02-20 03:29:00,
2013-02-19 21:34:00,3.2,-5.6,30.36,NNW,328,9.0,9.0,66,0.00,,SKC,0.00,VWS V14.01,2013-02-20 03:34:00,
2013-02-19 21:39:00,3.2,-5.6,30.36,NW,306,2.0,11.0,66,0.00,,SKC,0.00,VWS V14.01,2013-02-20 03:39:00,
2013-02-19 21:44:00,3.1,-5.7,30.37,West,280,2.0,11.0,66,0.00,,SKC,0.00,VWS V14.01,2013-02-20 03:44:00,
2013-02-19 21:49:00,3.0,-5.8,30.37,NW,311,2.0,11.0,66,0.00,,SKC,0.00,VWS V14.01,2013-02-20 03:49:00,
2013-02-19 21:54:00,2.9,-5.9,30.38,WNW,294,4.0,11.0,66,0.00,,SKC,0.00,VWS V14.01,2013-02-20 03:54:00,
2013-02-19 21:59:00,2.8,-5.7,30.38,NW,318,5.0,9.0,67,0.00,,SKC,0.00,VWS V14.01,2013-02-20 03:59:00,
2013-02-19 22:04:00,2.8,-5.7,30.37,NW,316,4.0,9.0,67,0.00,,SKC,0.00,VWS V14.01,2013-02-20 04:04:00,
2013-02-19 22:09:00,2.6,-5.8,30.37,NW,304,4.0,9.0,67,0.00,,SKC,0.00,VWS V14.01,2013-02-20 04:09:00,
2013-02-19 22:14:00,2.5,-5.6,30.37,WNW,302,2.0,9.0,68,0.00,,SKC,0.00,VWS V14.01,2013-02-20 04:14:00,
2013-02-19 22:19:00,2.3,-5.8,30.37,NW,316,2.0,9.0,68,0.00,,SKC,0.00,VWS V14.01,2013-02-20 04:19:00,
2013-02-19 22:24:00,2.3,-5.8,30.37,NW,315,9.0,10.0,68,0.00,,SKC,0.00,VWS V14.01,2013-02-20 04:24:00,
2013-02-19 22:29:00,2.2,-5.9,30.37,WNW,296,1.0,2.0,68,0.00,,SKC,0.00,VWS V14.01,2013-02-20 04:29:00,
2013-02-19 22:34:00,2.2,-5.6,30.37,NW,307,1.0,12.0,69,0.00,,SKC,0.00,VWS V14.01,2013-02-20 04:34:00,
2013-02-19 22:39:00,2.2,-5.9,30.38,NW,306,2.0,12.0,68,0.00,,SKC,0.00,VWS V14.01,2013-02-20 04:39:00,
2013-02-19 22:44:00,2.0,-5.8,30.38,NNW,328,2.0,12.0,69,0.00,,SKC,0.00,VWS V14.01,2013-02-20 04:44:00,
2013-02-19 22:49:00,1.9,-5.9,30.38,WNW,298,6.0,12.0,69,0.00,,SKC,0.00,VWS V14.01,2013-02-20 04:49:00,
2013-02-19 22:54:00,1.9,-5.9,30.38,NW,304,2.0,12.0,69,0.00,,SKC,0.00,VWS V14.01,2013-02-20 04:54:00,
2013-02-19 22:59:00,1.8,-6.0,30.38,NW,316,0.0,12.0,69,0.00,,SKC,0.00,VWS V14.01,2013-02-20 04:59:00,
2013-02-19 23:00:00,1.8,-6.0,30.38,NW,316,0.0,0.0,69,0.00,,SKC,0.00,VWS V14.01,2013-02-20 05:00:00,
2013-02-19 23:05:00,1.7,-6.1,30.39,NW,320,2.0,6.0,69,0.00,,SKC,0.00,VWS V14.01,2013-02-20 05:05:00,
2013-02-19 23:10:00,1.5,-6.0,30.39,WNW,301,1.0,6.0,70,0.00,,SKC,0.00,VWS V14.01,2013-02-20 05:10:00,
2013-02-19 23:15:00,1.4,-6.1,30.39,NW,315,1.0,6.0,70,0.00,,SKC,0.00,VWS V14.01,2013-02-20 05:15:00,
2013-02-19 23:20:00,1.3,-6.2,30.39,NW,315,0.0,6.0,70,0.00,,SKC,0.00,VWS V14.01,2013-02-20 05:20:00,
2013-02-19 23:25:00,1.3,-6.2,30.39,WNW,290,0.0,6.0,70,0.00,,SKC,0.00,VWS V14.01,2013-02-20 05:25:00,
2013-02-19 23:30:00,1.2,-6.0,30.39,NNW,340,2.0,2.0,71,0.00,,SKC,0.00,VWS V14.01,2013-02-20 05:30:00,
2013-02-19 23:35:00,1.0,-6.2,30.40,WNW,301,0.0,2.0,71,0.00,,SKC,0.00,VWS V14.01,2013-02-20 05:35:00,
2013-02-19 23:40:00,1.0,-6.2,30.39,NW,319,1.0,5.0,71,0.00,,SKC,0.00,VWS V14.01,2013-02-20 05:40:00,
2013-02-19 23:45:00,1.0,-6.2,30.39,NW,309,1.0,6.0,71,0.00,,SKC,0.00,VWS V14.01,2013-02-20 05:45:00,
2013-02-19 23:50:00,0.9,-6.3,30.40,WNW,293,4.0,7.0,71,0.00,,SKC,0.00,VWS V14.01,2013-02-20 05:50:00,
2013-02-19 23:55:00,0.8,-6.4,30.40,WNW,303,0.0,7.0,71,0.00,,SKC,0.00,VWS V14.01,2013-02-20 05:55:00,